Regional Weather Roundup
Issued by NWS

Home | Current Version | Previous Version | Text Only | Print | Product List | Glossary Off
Versions: 1 2 3 4 5 6 7 8 9 10 11 12 13 14 15 16 17 18 19 20 21 22 23 24 25 26 27 28 29 30 31 32 33 34 35 36 37 38 39 40 41 42 43 44 45 46 47 48 49 50

000
ASUS43 KLMK 240010
RWRKY
KENTUCKY REGIONAL WEATHER ROUNDUP
NATIONAL WEATHER SERVICE LOUISVILLE KY
800 PM EDT WED APR 23 2014

NOTE "FAIR" INDICATES FEW OR NO CLOUDS BELOW 12,000 FEET
WITH NO SIGNIFICANT WEATHER AND/OR OBSTRUCTIONS TO VISIBILITY.

KYZ001>023-026-027-061>063-070>075-240100-
WESTERN AND SOUTH CENTRAL KENTUCKY

CITY           SKY/WX    TMP DP  RH WIND       PRES   REMARKS
PADUCAH        CLEAR     66  36  32 NE8       29.98F
HENDERSON      CLEAR     61  34  36 N5        30.02R
OWENSBORO      CLEAR     64  29  27 N9        30.02F
HOPKINSVILLE   CLEAR     64  38  38 NE6       29.99S
BOWLING GREEN  CLEAR     62  30  29 NE8       30.01S
GLASGOW        CLEAR     62  32  32 CALM      30.01S
$$

KYZ024-025-028>034-038-045-046-053-240100-
NORTH CENTRAL KENTUCKY

CITY           SKY/WX    TMP DP  RH WIND       PRES   REMARKS
LOUISVILLE/SDF PTCLDY    62  29  28 N7        30.04R
LOUISVILLE/LOU CLEAR     64  29  26 N6        30.04R
FORT KNOX      CLEAR     60  29  31 N5        30.02S
$$

KYZ035>037-039>044-047>052-055>060-089>105-240100-
NORTHEAST KENTUCKY

CITY           SKY/WX    TMP DP  RH WIND       PRES   REMARKS
LEXINGTON      CLEAR     57  34  41 NE6       30.04S
COVINGTON      PTCLDY    58  31  35 NE9       30.04F
FRANKFORT      CLEAR     60  29  30 N6        30.03S
$$

KYZ054-064>069-076>088-106>120-240100-
SOUTHEAST KENTUCKY

CITY           SKY/WX    TMP DP  RH WIND       PRES   REMARKS
JACKSON        CLEAR     58  27  30 VRB5      30.02S
LONDON         CLEAR     60  30  32 N7        30.01S
SOMERSET       CLEAR     55  32  41 NE8       30.03F
MIDDLESBORO    CLEAR     62  29  28 N6        29.99S
MONTICELLO     CLEAR     58  37  45 NE8       30.03S
$$




USA.gov is the U.S. government's official web portal to all federal, state and local government web resources and services.